Location: Newark
(7.0858°N, 171.3717°E)
Time: 05:23:19
(UTC+00:00)

Courier 1B Rocket - Pass Details

Date: 28 November 2020
Orbit: 920 x 1202 km, 28.2° (Epoch: 20 January)

Event Time Altitude Azimuth Distance (km) Brightness Sun altitude
Rises 21:01:35 0° 312° (NW) 4,052 7.7 33.0°
Reaches altitude 10° 21:06:10 10° 336° (NNW) 3,047 7.3 34.0°
Maximum altitude 21:09:54 14° 6° (N) 2,697 7.2 34.8°
Drops below altitude 10° 21:13:33 10° 36° (NE) 2,953 7.7 35.5°
Sets 21:17:52 0° 60° (ENE) 3,845 8.4 36.4°
